Zurück zum Katalog

COSMOS 2251 DEB

AktivLEO
NORAD 33980·DEBRIS·🇷🇺 Russia

Gestartet Jun 16, 1993 von Plesetsk Cosmodrome

Loading…

Nächste Überflüge (nächste 24 Stunden)

TLE

AktuellSource: Space-Track

Epoche: Sep 14, 2026, 22:25 UTC

1 33980U 93036FP  26257.93440977  .00001904  00000-0  40004-3 0  9994
2 33980  74.0166 252.2771 0029953 321.2780  53.5798 14.60055782928246

Verfolge COSMOS 2251 DEB in Echtzeit mit AllMySat

Download on the App Store